Lapse_Rate
4.0 4.1 5.5 5.5 5.3 5.2 5.2 5.2 5.0 4.9 4.9 5.1 5.1 5.1 5.1 5.2 5.5 6.0 6.2 5.9 5.9 5.8 5.6 6.0 6.5 6.6 6.6 6.4 6.0 5.9 6.1 6.1 5.7 5.2 5.0 5.1 5.1 5.6 5.5 5.5 5.5 5.9 6.9
3.4 4.4 5.4 5.5 5.5 5.2 5.1 5.1 4.9 4.8 4.9 5.1 5.1 5.1 5.1 5.2 5.4 5.6 5.9 6.0 6.2 6.3 6.3 6.0 5.6 5.7 6.0 6.1 6.1 6.4 6.2 5.9 5.6 5.1 4.9 4.8 5.0 5.7 5.4 5.2 5.2 5.4 5.7
3.8 4.4 5.0 5.4 5.4 5.3 5.1 5.0 5.0 5.1 5.2 5.3 5.4 5.4 5.4 5.3 5.4 5.4 5.6 5.8 6.0 6.3 6.6 6.6 5.9 5.6 5.7 6.2 6.1 6.0 6.3 6.0 5.7 5.2 4.9 4.5 4.7 5.6 5.9 5.4 5.4 5.6 5.6
4.2 4.4 4.8 5.2 5.4 5.3 5.3 5.2 5.1 5.2 5.4 5.4 5.6 5.6 5.7 5.7 5.7 5.6 5.7 5.6 5.4 5.6 6.6 6.6 6.3 5.8 5.3 5.4 5.5 5.6 6.0 6.0 5.7 5.2 4.7 4.5 4.4 5.3 6.0 5.8 5.8 5.7 5.6
4.1 4.6 5.0 5.5 5.5 5.4 5.4 5.4 5.3 5.4 5.6 5.6 5.6 5.7 5.9 5.9 5.9 5.9 5.8 5.6 5.2 5.2 6.0 6.4 6.2 6.1 5.7 5.2 5.1 5.3 5.6 5.7 5.3 5.2 4.5 4.3 4.2 4.6 6.0 6.2 6.2 6.4 5.9
4.2 5.0 5.1 5.7 5.5 5.6 5.4 5.4 5.5 5.4 5.5 5.6 5.6 5.6 5.5 5.7 5.8 6.0 5.8 5.6 5.4 5.3 5.5 6.0 6.3 5.9 5.7 5.4 5.4 5.2 5.2 5.4 5.2 4.4 3.9 3.9 4.4 4.6 6.1 6.8 6.5 6.4 6.2
3.6 5.0 5.3 5.2 5.4 5.4 5.4 5.4 5.3 5.4 5.6 5.7 5.7 5.8 5.9 6.1 6.1 6.1 6.0 6.0 5.8 5.6 5.7 5.8 5.9 5.9 5.8 5.3 5.2 5.6 5.6 5.0 4.7 4.1 3.6 3.6 3.9 5.1 6.3 7.0 7.4 6.9 6.7
2.7 3.4 4.1 4.4 4.6 4.8 4.9 4.8 4.8 5.0 5.2 5.2 5.2 5.2 5.2 5.2 5.1 5.4 5.5 5.6 5.7 5.8 5.9 6.1 6.1 6.1 5.9 5.7 5.6 5.6 5.5 5.4 4.8 3.9 3.7 3.4 3.7 5.2 6.2 6.7 7.2 7.2 7.0
2.6 2.6 2.9 3.4 4.0 3.9 3.9 4.0 4.1 4.2 4.3 4.4 4.4 4.4 4.1 4.0 4.3 4.7 4.8 4.9 5.5 5.7 5.5 5.6 6.0 6.0 6.1 6.3 6.1 5.9 5.6 5.4 4.9 4.2 4.0 3.9 3.7 5.1 6.3 6.7 6.8 7.2 6.8
1.8 1.8 2.1 2.6 3.0 2.9 3.0 2.7 2.6 2.7 2.6 2.7 2.5 2.0 2.0 2.8 2.7 3.2 3.4 3.8 4.7 5.0 5.5 5.5 5.5 5.5 5.6 6.0 6.2 6.2 6.1 6.3 4.9 4.2 3.9 3.7 4.5 5.7 6.3 6.3 6.5 7.0 7.1
1.9 1.1 1.3 1.4 1.7 2.0 2.2 1.3 1.3 1.1 0.9 1.0 1.1 1.2 1.8 1.6 1.8 2.4 2.4 2.7 3.6 3.9 4.3 5.1 5.3 5.1 4.9 5.0 5.2 5.5 5.8 5.0 4.9 4.4 4.0 4.1 4.9 5.6 6.1 6.5 6.8 6.7 6.9
2.9 1.3 0.3 0.5 0.3 0.6 1.0 0.0 0.1 0.4 0.3 0.3 0.5 0.7 0.8 1.1 1.1 1.4 1.9 1.7 2.0 2.5 2.5 3.2 3.3 3.5 3.3 3.5 4.0 4.1 4.2 4.3 4.1 3.9 3.9 4.4 5.2 5.9 6.4 6.6 6.8 7.0 7.1
2.9 1.4 0.5 -0.1 -0.3 -0.5 -0.9 -0.9 -0.9 -0.4 -0.2 -0.2 -0.2 -0.2 -0.1 0.1 0.4 0.6 0.7 0.9 1.1 1.5 1.2 1.4 1.4 1.8 1.8 2.5 3.1 3.7 4.1 4.5 4.3 4.4 4.1 4.3 5.0 5.5 6.1 6.5 6.4 6.7 7.0
2.5 1.6 0.3 -0.1 -0.6 -1.0 -1.1 -1.6 -1.4 -1.3 -1.0 -1.1 -0.8 -0.5 -1.0 -1.4 -1.0 -0.6 -0.3 0.3 0.5 0.8 0.3 0.6 0.3 0.8 1.2 1.8 2.2 2.4 3.4 3.9 4.5 4.4 3.9 4.0 4.6 5.4 5.8 6.1 6.4 6.4 6.3
1.9 1.2 0.3 -0.5 -0.7 -0.5 -1.1 -1.5 -1.5 -1.8 -1.5 -1.4 -1.1 -0.7 -0.6 -1.1 -1.6 -0.7 -0.3 0.2 0.6 1.0 0.9 0.3 0.3 0.3 0.3 1.2 1.8 1.9 2.1 3.1 3.7 3.8 3.7 4.2 4.1 4.5 5.3 5.9 6.2 6.7 6.9
1.0 0.7 -0.1 -0.1 -0.2 0.1 -0.7 -1.2 -1.9 -1.7 -1.4 -1.2 -1.1 -0.9 -0.5 -0.5 -1.1 -0.8 -0.7 -0.0 0.7 1.3 1.7 1.2 0.5 0.1 0.2 0.5 0.6 1.7 1.8 2.2 2.9 3.4 3.9 4.1 4.2 4.5 5.1 5.7 6.2 6.3 6.4
0.4 0.6 -0.1 -0.0 0.3 0.0 -0.5 -1.0 -1.5 -1.5 -1.2 -1.7 -1.5 -0.9 -0.5 -0.2 -0.5 -0.7 -0.8 -0.4 0.8 1.8 2.1 2.0 1.8 1.7 1.1 1.6 1.1 1.3 2.0 2.7 2.8 3.1 3.9 4.3 4.5 4.7 4.9 5.7 6.2 6.3 6.3
0.2 -0.1 0.0 1.3 0.3 -0.3 -0.7 -1.0 -1.2 -1.3 -1.9 -2.1 -1.8 -1.4 -0.9 -0.3 -0.1 -0.5 -0.8 -0.1 1.3 1.9 2.3 1.7 1.9 1.9 2.2 2.1 1.5 1.6 1.6 2.0 2.4 3.0 3.8 4.0 4.1 4.5 4.5 4.8 5.3 5.5 5.6
-0.4 -0.2 -0.1 0.2 0.2 -0.0 -0.5 -0.8 -1.3 -1.6 -2.0 -2.0 -1.8 -1.7 -0.9 -0.1 0.4 -0.1 -0.4 0.6 1.7 2.0 2.3 2.1 2.5 2.5 2.7 2.5 2.5 2.6 2.1 1.9 2.3 3.3 3.3 4.0 4.1 4.1 4.0 4.2 4.6 4.6 4.9
-0.8 -0.9 -0.4 -0.6 -0.5 -0.4 -1.1 -1.4 -2.0 -2.2 -1.9 -1.5 -1.5 -0.9 -0.3 0.2 0.8 0.5 0.9 1.4 1.9 2.0 2.4 2.5 2.3 3.0 3.0 2.7 3.4 3.0 1.8 1.5 2.0 2.9 3.0 3.0 3.3 3.9 3.9 3.4 3.2 2.9 3.6
-1.8 -1.5 -1.3 -0.6 -0.5 -0.7 -0.9 -1.1 -1.8 -1.6 -2.1 -1.8 -1.1 -0.3 -0.1 0.5 0.8 0.6 1.0 1.5 2.1 2.2 3.0 2.4 3.3 2.9 3.2 3.0 2.3 1.7 1.2 1.6 2.1 2.5 2.3 2.0 2.5 2.9 3.2 2.9 2.4 2.3 2.2
-1.5 -1.5 -1.1 -0.3 -0.3 -0.8 -1.5 -2.0 -2.1 -2.2 -2.3 -2.2 -1.3 -0.2 0.5 0.6 0.9 1.5 1.1 1.7 1.9 3.7 4.1 2.5 4.4 4.9 3.2 3.3 3.7 2.5 2.7 2.7 2.6 2.6 1.8 2.5 2.8 2.8 2.6 2.8 3.0 3.4 3.1
-2.0 -1.5 -0.4 -0.1 -0.2 -0.6 -1.0 -1.8 -2.0 -2.2 -2.0 -1.2 -0.6 -0.5 0.2 0.4 0.7 1.2 1.6 2.6 3.6 4.1 3.7 2.5 4.6 5.7 5.9 5.7 4.1 4.3 4.6 4.7 4.7 2.5 2.5 2.3 3.3 2.9 2.5 2.9 3.3 3.4 3.3
-1.4 -1.3 -0.3 0.1 0.0 -0.1 -1.1 -1.1 -1.0 -1.1 -0.7 -1.0 -1.0 -0.8 -0.6 0.6 0.5 1.0 1.4 1.9 2.3 3.4 4.2 4.4 5.6 5.7 5.7 6.3 6.2 6.2 5.1 5.4 6.5 5.2 3.8 3.9 3.4 3.8 3.2 2.8 3.6 4.5 3.7
0.2 -0.3 -0.4 -0.4 -0.3 -0.2 -0.8 -1.4 -1.6 -1.5 -1.7 -1.4 -1.3 -0.6 -0.2 -0.1 0.7 0.9 1.3 1.5 1.1 1.7 3.9 4.8 5.7 5.9 5.9 6.1 6.5 6.2 6.2 5.3 5.0 6.5 6.8 5.3 4.4 3.9 4.8 4.4 3.9 4.1 3.0
0.5 0.1 -0.3 -0.3 -0.1 -0.3 -0.5 -0.8 -1.2 -1.1 -1.0 -1.0 -0.6 -0.3 -0.1 -0.1 -0.1 0.7 1.0 1.0 0.9 1.0 3.5 5.4 6.0 6.1 6.0 6.0 6.2 6.2 6.1 7.0 6.9 6.5 6.3 6.2 7.0 6.7 4.4 4.1 3.1 2.7 2.1
Wind_Speed
3 9 13 11 9 9 8 7 7 7 7 7 7 7 6 5 6 7 5 4 4 4 6 7 7 5 5 3 3 4 4 5 5 5 5 5 4 5 5 4 5 6 6
9 12 14 11 9 8 8 7 7 7 6 5 6 5 5 4 5 5 6 8 5 2 3 4 5 4 3 3 1 3 4 3 3 4 4 4 3 3 2 2 2 1 2
7 13 13 11 9 8 7 6 5 5 5 5 4 4 3 4 5 4 7 8 10 2 1 1 3 4 2 1 3 2 3 2 2 2 1 2 2 3 1 1 1 1 1
11 13 13 11 9 8 6 5 4 4 3 3 3 3 3 4 4 5 6 7 9 9 2 1 1 2 3 2 1 0 1 1 2 3 2 3 4 6 4 4 4 3 3
8 11 11 11 8 7 5 3 2 2 2 1 2 3 5 5 6 6 6 6 7 8 2 2 3 3 4 3 4 4 4 4 4 4 5 6 7 9 8 7 6 6 5
7 10 11 9 7 4 3 2 2 2 4 5 5 6 7 8 8 8 7 6 6 6 8 8 6 7 6 6 7 8 8 7 6 6 6 7 8 8 10 10 9 9 8
6 9 10 10 8 6 5 5 5 5 5 6 6 7 9 10 9 10 11 9 8 8 9 10 11 12 10 8 9 10 10 10 7 7 8 8 9 10 11 13 12 11 11
8 11 13 12 10 9 8 8 8 8 8 8 9 10 10 10 10 11 11 12 12 12 13 12 13 14 14 12 12 11 11 11 11 8 10 10 11 12 12 14 16 14 13
11 11 11 10 9 10 10 10 10 10 9 9 11 11 12 12 11 11 11 12 13 13 14 15 16 17 15 15 15 14 13 13 11 11 11 13 13 14 14 15 16 19 17
6 8 8 9 10 10 10 12 12 13 13 12 13 13 13 13 14 13 12 12 12 13 13 13 14 13 14 16 16 17 17 16 14 12 13 14 15 17 18 19 19 19 20
5 5 7 8 8 8 9 10 12 12 13 13 13 14 14 13 13 12 11 11 12 13 13 14 13 13 14 12 13 15 17 12 13 12 13 15 18 20 21 21 21 22 22
3 3 4 5 6 7 8 9 9 9 10 10 12 12 12 11 12 11 12 11 13 12 13 13 13 13 12 12 10 10 8 9 9 10 11 15 19 21 21 22 22 22 23
3 2 3 4 5 6 6 7 8 8 9 10 11 11 11 11 12 12 12 12 12 11 13 14 15 13 13 11 10 8 7 7 7 8 10 14 15 17 17 17 18 19 21
3 3 2 3 4 5 4 5 5 6 8 8 10 11 10 8 9 9 8 10 10 11 10 11 10 13 12 12 10 9 10 8 7 7 9 13 13 14 15 15 16 17 17
4 3 3 2 2 2 3 3 4 5 6 7 9 9 9 7 5 8 8 9 9 10 8 7 8 7 7 9 10 7 7 8 9 9 10 13 13 13 13 15 17 18 18
5 5 4 3 3 1 2 3 3 4 5 6 7 7 8 7 6 6 6 6 8 10 11 9 5 4 4 5 5 7 7 8 9 9 10 12 12 12 12 14 17 18 19
6 5 6 5 4 1 2 2 3 3 3 5 7 8 9 9 8 8 5 4 7 12 11 9 7 6 4 3 5 5 5 7 7 8 9 9 10 12 12 14 14 16 17
5 6 6 4 4 2 1 1 1 2 4 5 6 7 8 8 8 8 4 3 10 10 7 4 4 4 4 4 4 5 4 5 6 7 7 6 7 9 10 12 14 15 16
7 6 5 4 4 3 1 0 1 2 3 4 7 7 8 8 9 7 5 6 10 6 4 4 3 2 3 4 4 4 4 4 4 3 4 5 6 8 9 12 14 15 15
6 6 5 4 4 2 1 2 2 2 3 3 6 7 9 10 10 8 6 6 7 3 4 5 4 3 3 3 5 5 4 3 1 0 3 5 5 7 10 11 12 12 15
5 6 6 6 5 2 0 1 1 2 2 2 4 6 7 7 10 9 5 5 6 4 4 5 3 4 3 3 3 4 3 3 3 3 2 3 4 5 10 11 10 10 10
5 6 6 5 4 3 2 1 1 1 2 3 5 5 4 7 8 7 6 4 5 3 7 5 4 3 2 4 3 1 4 4 3 3 3 3 6 5 5 9 9 9 8
5 7 7 7 6 4 2 1 1 1 2 2 2 2 3 8 7 7 8 5 4 3 4 4 3 4 3 2 4 1 3 2 4 3 4 4 7 4 4 5 7 9 10
6 5 5 5 4 3 4 2 3 2 2 2 2 2 4 8 8 8 8 7 5 3 4 5 4 3 2 3 2 1 1 2 2 4 2 5 5 5 5 4 5 7 11
3 4 4 4 4 4 4 4 3 4 3 3 3 5 5 5 7 8 7 6 4 3 4 5 5 4 2 2 1 2 1 1 4 3 7 5 3 3 2 3 4 6 10
2 3 3 4 5 5 4 5 6 7 6 5 4 4 4 3 4 6 7 6 5 4 4 4 4 4 4 3 3 3 2 3 4 3 3 3 4 4 1 2 3 4 8
Wind_Direction
199 158 147 143 135 127 115 105 95 85 78 75 74 72 75 61 43 42 45 47 29 27 39 50 60 91 85 78 85 105 82 77 76 73 60 54 47 40 79 55 36 26 50
139 156 150 148 143 129 118 112 103 97 92 88 83 71 68 60 39 27 11 2 6 346 44 52 53 53 59 77 49 165 105 85 89 87 68 56 35 38 60 68 63 22 21
133 151 151 148 143 133 124 118 108 98 89 80 74 61 45 31 7 4 354 348 352 316 210 63 47 18 16 127 124 45 90 98 134 135 85 38 353 317 288 256 248 235 215
140 144 148 149 146 139 134 120 105 89 73 59 38 27 358 349 344 336 337 341 347 345 226 195 13 7 6 309 22 238 238 215 228 214 237 277 301 293 268 253 244 229 222
125 140 149 153 148 145 139 120 96 39 349 4 347 339 326 325 326 326 330 335 340 345 298 237 276 302 308 285 273 272 270 261 245 239 252 269 284 277 264 258 257 250 233
122 146 147 141 124 119 95 87 50 16 348 338 333 322 314 308 309 309 308 315 322 319 309 284 253 257 267 277 275 271 270 268 257 253 258 273 277 283 253 257 253 254 249
97 101 117 107 101 93 77 60 44 25 11 3 352 341 330 322 330 330 330 323 308 299 291 287 280 274 266 261 268 270 269 269 264 252 260 270 273 275 263 262 250 249 255
88 80 83 79 75 67 58 49 36 21 13 9 6 0 349 344 343 339 337 339 333 316 300 288 279 275 273 267 261 264 266 265 266 267 255 262 266 273 273 266 265 247 248
81 80 75 74 65 57 51 44 33 23 18 20 18 14 8 0 355 350 350 353 349 339 328 311 290 279 278 277 273 267 261 264 266 261 260 263 267 272 274 271 269 263 244
70 74 74 68 64 61 56 41 40 36 35 30 24 16 12 10 11 11 12 1 359 359 358 0 358 351 321 295 279 271 266 263 256 254 258 260 264 269 271 270 267 265 255
64 59 62 60 56 54 53 38 35 32 30 29 20 14 9 5 1 359 356 356 350 347 348 349 349 351 351 332 313 292 285 262 252 248 249 254 265 269 268 266 264 262 264
116 74 66 64 54 53 52 42 35 25 20 18 12 6 2 357 353 348 348 353 352 352 351 350 348 347 347 342 331 321 306 283 265 253 252 259 271 281 285 282 273 265 262
131 111 86 79 65 56 43 34 30 21 12 12 10 6 359 353 351 353 350 352 350 352 348 345 343 341 336 330 321 312 294 294 278 273 264 266 277 286 295 295 291 280 270
161 163 123 78 68 61 56 38 23 14 9 7 1 2 1 358 352 348 345 343 347 347 339 337 328 321 319 316 309 301 292 276 273 273 270 272 276 286 294 299 303 301 285
195 192 185 116 89 82 61 38 26 12 9 358 5 9 16 10 356 348 344 343 341 343 338 325 318 308 305 307 306 297 287 281 269 262 267 279 281 283 293 302 306 306 305
205 203 177 185 179 129 43 32 13 9 5 16 11 359 3 2 356 354 342 339 339 340 328 318 303 298 295 292 290 292 290 292 287 281 279 284 287 289 296 303 306 308 305
210 191 190 192 187 104 58 27 17 10 27 5 348 346 350 354 356 349 334 329 329 330 325 327 321 317 312 310 290 291 288 285 282 280 282 281 292 302 307 307 305 306 302
193 194 193 191 170 135 88 20 18 26 5 355 355 348 350 348 354 347 332 325 336 333 326 325 317 319 311 310 300 292 285 281 279 287 299 313 315 311 314 313 315 316 311
203 190 195 183 173 163 171 149 79 355 11 360 358 352 350 349 341 345 338 331 341 334 338 333 318 272 296 313 300 288 282 276 296 332 325 314 321 331 332 325 319 317 315
206 192 182 175 168 159 18 2 6 358 356 357 356 354 348 345 346 343 344 348 342 341 343 343 319 308 258 290 298 296 288 302 278 0 306 339 347 341 343 333 334 328 333
189 179 180 175 196 161 50 356 24 321 310 312 334 341 347 345 346 337 325 345 336 325 349 340 321 329 315 337 324 319 335 13 69 324 351 2 328 343 348 353 351 347 345
178 186 183 199 198 202 174 175 172 230 274 268 296 316 338 346 337 337 332 343 314 313 335 339 341 328 303 360 338 291 355 336 345 11 25 0 342 339 356 359 349 343 339
185 188 195 210 216 212 173 106 4 329 314 314 305 310 322 328 326 325 324 321 316 327 328 315 304 351 335 318 14 343 356 333 330 341 355 341 329 344 350 348 344 358 357
205 195 215 224 224 215 185 192 214 217 267 244 253 270 301 317 318 315 313 315 311 311 310 314 317 318 325 334 320 11 55 320 335 324 325 317 329 327 348 340 347 356 8
187 216 234 251 250 237 214 217 228 250 236 267 273 290 302 306 304 304 300 304 306 310 298 308 305 314 308 300 330 329 315 279 227 247 303 312 329 318 12 345 8 358 10
257 263 265 264 268 263 254 252 244 256 267 277 276 282 286 287 289 282 290 289 295 302 298 295 296 288 292 273 252 256 250 292 286 283 284 285 312 318 274 36 13 7 5